QFA4833 YSSY-YMML

Flight info

Callsign QFA4833
Flight time N/A
Altitude 32000
Route WOL H65 LEECE Q29 ML
Aircraft A320/M-SDE3FGHIRWY/LB1

Departure

Time 2026-05-04 13:49
Airport Sydney Kingsford Smith International Airport (YSSY)

Arrival

Time N/A
Airport Melbourne Airport (YMML)
Time Latitude Longitude Altitude Speed Heading
2026-05-04 11:59 -33.93734 151.16934 21 ft 0 kts 253°
2026-05-04 13:29 -33.93731 151.16946 21 ft 3 kts 253°
2026-05-04 13:29 -33.93725 151.16968 24 ft 3 kts 253°
2026-05-04 13:30 -33.93720 151.16990 25 ft 3 kts 253°
2026-05-04 13:30 -33.93714 151.17011 23 ft 3 kts 253°
2026-05-04 13:30 -33.93708 151.17033 23 ft 3 kts 253°
2026-05-04 13:30 -33.93703 151.17055 21 ft 3 kts 253°
2026-05-04 13:31 -33.93697 151.17076 23 ft 3 kts 253°
2026-05-04 13:31 -33.93692 151.17098 22 ft 3 kts 253°
2026-05-04 13:31 -33.93686 151.17120 20 ft 3 kts 253°
2026-05-04 13:31 -33.93681 151.17140 20 ft 3 kts 253°
2026-05-04 13:32 -33.93681 151.17141 20 ft 0 kts 253°
2026-05-04 13:36 -33.93681 151.17139 20 ft 2 kts 252°
2026-05-04 13:37 -33.93689 151.17111 20 ft 0 kts 250°
2026-05-04 13:37 -33.93699 151.17106 24 ft 1 kts 181°
2026-05-04 13:37 -33.93711 151.17124 22 ft 6 kts 125°
2026-05-04 13:37 -33.93745 151.17159 16 ft 14 kts 154°
2026-05-04 13:38 -33.93781 151.17174 16 ft 1 kts 166°
2026-05-04 13:38 -33.93817 151.17184 15 ft 9 kts 166°
2026-05-04 13:38 -33.93833 151.17188 15 ft 3 kts 166°
2026-05-04 13:38 -33.93875 151.17199 16 ft 0 kts 169°
2026-05-04 13:39 -33.93886 151.17202 16 ft 6 kts 170°
2026-05-04 13:39 -33.93984 151.17227 22 ft 14 kts 167°
2026-05-04 13:40 -33.94053 151.17243 22 ft 17 kts 168°
2026-05-04 13:40 -33.94183 151.17279 25 ft 18 kts 168°
2026-05-04 13:40 -33.94207 151.17285 22 ft 6 kts 170°
2026-05-04 13:40 -33.94295 151.17307 28 ft 20 kts 168°
2026-05-04 13:41 -33.94418 151.17336 26 ft 16 kts 169°
2026-05-04 13:41 -33.94508 151.17360 26 ft 7 kts 166°
2026-05-04 13:41 -33.94618 151.17388 29 ft 23 kts 169°
2026-05-04 13:42 -33.94793 151.17448 24 ft 5 kts 164°
2026-05-04 13:42 -33.94845 151.17447 21 ft 3 kts 181°
2026-05-04 13:42 -33.94930 151.17470 19 ft 21 kts 166°
2026-05-04 13:42 -33.95041 151.17495 20 ft 18 kts 167°
2026-05-04 13:43 -33.95162 151.17532 18 ft 17 kts 169°
2026-05-04 13:43 -33.95271 151.17563 18 ft 11 kts 168°
2026-05-04 13:43 -33.95387 151.17587 19 ft 17 kts 165°
2026-05-04 13:43 -33.95547 151.17634 24 ft 30 kts 168°
2026-05-04 13:44 -33.95751 151.17691 27 ft 23 kts 170°
2026-05-04 13:44 -33.95833 151.17711 24 ft 19 kts 165°
2026-05-04 13:44 -33.95977 151.17745 24 ft 7 kts 173°
2026-05-04 13:44 -33.96075 151.17772 26 ft 22 kts 164°
2026-05-04 13:45 -33.96198 151.17800 24 ft 11 kts 171°
2026-05-04 13:45 -33.96316 151.17833 25 ft 7 kts 166°
2026-05-04 13:45 -33.96381 151.17849 24 ft 15 kts 169°
2026-05-04 13:45 -33.96412 151.17900 27 ft 0 kts 98°
2026-05-04 13:46 -33.96424 151.17937 24 ft 0 kts 117°
2026-05-04 13:47 -33.96431 151.17956 26 ft 9 kts 108°
2026-05-04 13:47 -33.96421 151.18000 25 ft 6 kts 57°
2026-05-04 13:48 -33.96397 151.18029 28 ft 8 kts 36°
2026-05-04 13:48 -33.96358 151.18036 25 ft 6 kts 348°
2026-05-04 13:48 -33.96321 151.18025 25 ft 14 kts 347°
2026-05-04 13:48 -33.96168 151.17994 20 ft 33 kts 349°
2026-05-04 13:49 -33.95546 151.17834 27 ft 147 kts 351°
2026-05-04 13:49 -33.94333 151.17681 597 ft 181 kts 359°
2026-05-04 13:49 -33.92998 151.17605 1721 ft 210 kts 354°
2026-05-04 13:49 -33.91457 151.17099 2710 ft 248 kts 335°
2026-05-04 13:50 -33.90096 151.15664 3640 ft 279 kts 302°
2026-05-04 13:50 -33.89502 151.13361 4551 ft 304 kts 276°
2026-05-04 13:50 -33.89645 151.10862 5989 ft 286 kts 263°
2026-05-04 13:50 -33.89898 151.08551 6926 ft 276 kts 267°
2026-05-04 13:51 -33.90147 151.06258 7470 ft 276 kts 253°
2026-05-04 13:51 -33.91103 151.04269 8253 ft 282 kts 227°
2026-05-04 13:51 -33.92602 151.02776 9817 ft 280 kts 217°
2026-05-04 13:51 -33.94240 151.01393 11028 ft 297 kts 216°
2026-05-04 13:52 -33.97929 150.98366 12624 ft 343 kts 210°
2026-05-04 13:52 -34.00117 150.97165 13782 ft 349 kts 200°
2026-05-04 13:52 -34.02479 150.96344 14957 ft 356 kts 195°
2026-05-04 13:53 -34.04874 150.95597 16058 ft 363 kts 195°
2026-05-04 13:53 -34.07286 150.94822 17115 ft 368 kts 195°
2026-05-04 13:53 -34.09819 150.94005 18154 ft 375 kts 195°
2026-05-04 13:54 -34.14940 150.92358 20108 ft 387 kts 195°
2026-05-04 13:54 -34.17546 150.91520 21044 ft 393 kts 195°
2026-05-04 13:54 -34.22890 150.89797 22797 ft 404 kts 195°
2026-05-04 13:55 -34.25630 150.88912 23650 ft 410 kts 195°
2026-05-04 13:55 -34.31203 150.87110 25256 ft 420 kts 195°
2026-05-04 13:55 -34.33996 150.86204 25975 ft 425 kts 195°
2026-05-04 13:56 -34.36864 150.85274 26697 ft 430 kts 195°
2026-05-04 13:56 -34.39774 150.84330 27362 ft 435 kts 195°
2026-05-04 13:56 -34.45642 150.82420 28688 ft 441 kts 195°
2026-05-04 13:57 -34.48618 150.81451 29266 ft 445 kts 195°
2026-05-04 13:57 -34.51652 150.80437 29813 ft 449 kts 198°
2026-05-04 13:58 -34.59144 150.73798 31446 ft 458 kts 233°
2026-05-04 13:58 -34.62861 150.67509 31971 ft 460 kts 234°
2026-05-04 13:58 -34.64708 150.64384 32001 ft 458 kts 234°
2026-05-04 13:59 -34.68441 150.58133 32000 ft 455 kts 234°
2026-05-04 14:00 -34.74055 150.48778 32000 ft 455 kts 234°
2026-05-04 14:00 -34.79650 150.39434 32000 ft 456 kts 234°
2026-05-04 14:01 -34.83057 150.33732 32000 ft 455 kts 234°
2026-05-04 14:02 -34.88625 150.24387 32000 ft 456 kts 234°
2026-05-04 14:02 -34.92374 150.18080 32000 ft 459 kts 234°
2026-05-04 14:03 -34.96084 150.11829 32000 ft 458 kts 234°
2026-05-04 14:03 -34.99821 150.05518 32000 ft 457 kts 234°
2026-05-04 14:04 -35.05398 149.96083 32000 ft 458 kts 234°
2026-05-04 14:04 -35.09107 149.89792 32000 ft 458 kts 234°
2026-05-04 14:05 -35.14705 149.80283 32000 ft 458 kts 234°
2026-05-04 14:06 -35.18410 149.73975 32000 ft 458 kts 234°
2026-05-04 14:06 -35.22134 149.67623 32000 ft 459 kts 234°
2026-05-04 14:07 -35.25790 149.61375 32001 ft 459 kts 234°
2026-05-04 14:07 -35.29488 149.55045 32001 ft 460 kts 234°
2026-05-04 14:08 -35.33189 149.48698 32000 ft 460 kts 234°
2026-05-04 14:08 -35.36905 149.42313 32000 ft 459 kts 234°
2026-05-04 14:09 -35.42465 149.32737 32000 ft 460 kts 234°
2026-05-04 14:10 -35.48004 149.23171 32000 ft 459 kts 234°
2026-05-04 14:10 -35.51725 149.16729 32000 ft 460 kts 235°
2026-05-04 14:11 -35.55407 149.10345 32000 ft 459 kts 235°
2026-05-04 14:11 -35.60947 149.00715 32000 ft 460 kts 235°
2026-05-04 14:12 -35.64611 148.94332 31999 ft 461 kts 235°
2026-05-04 14:13 -35.70198 148.84577 31999 ft 463 kts 235°
2026-05-04 14:13 -35.73886 148.78121 32001 ft 465 kts 235°
2026-05-04 14:14 -35.77585 148.71636 32000 ft 461 kts 235°
2026-05-04 14:14 -35.83137 148.61878 32000 ft 462 kts 235°
2026-05-04 14:15 -35.90504 148.48881 32001 ft 463 kts 235°
2026-05-04 14:16 -35.96038 148.39042 32001 ft 463 kts 235°
2026-05-04 14:17 -36.01522 148.29273 32000 ft 460 kts 235°
2026-05-04 14:18 -36.07001 148.19487 32000 ft 461 kts 235°
2026-05-04 14:19 -36.14239 148.06525 32000 ft 456 kts 235°
2026-05-04 14:19 -36.17858 148.00054 32000 ft 456 kts 235°
2026-05-04 14:20 -36.21468 147.93585 32000 ft 456 kts 236°
2026-05-04 14:20 -36.25086 147.87089 32000 ft 457 kts 236°
2026-05-04 14:21 -36.30491 147.77356 32000 ft 458 kts 236°
2026-05-04 14:21 -36.34095 147.70851 32000 ft 459 kts 236°
2026-05-04 14:22 -36.37716 147.64288 32000 ft 460 kts 236°
2026-05-04 14:22 -36.41327 147.57727 32000 ft 458 kts 236°
2026-05-04 14:23 -36.46698 147.47949 32000 ft 457 kts 236°
2026-05-04 14:24 -36.49664 147.42538 32000 ft 456 kts 236°
2026-05-04 14:24 -36.53247 147.35990 32000 ft 456 kts 236°
2026-05-04 14:25 -36.56825 147.29439 32000 ft 458 kts 236°
2026-05-04 14:25 -36.62199 147.19575 32000 ft 458 kts 236°
2026-05-04 14:26 -36.65765 147.13013 32000 ft 456 kts 236°
2026-05-04 14:26 -36.69333 147.06437 32000 ft 462 kts 236°
2026-05-04 14:27 -36.72901 146.99845 32000 ft 457 kts 236°
2026-05-04 14:27 -36.76438 146.93299 32000 ft 459 kts 236°
2026-05-04 14:28 -36.80012 146.86670 32000 ft 457 kts 236°
2026-05-04 14:28 -36.83544 146.80108 32000 ft 462 kts 236°
2026-05-04 14:29 -36.90653 146.66861 32000 ft 457 kts 236°
2026-05-04 14:30 -36.94210 146.60212 32000 ft 459 kts 236°
2026-05-04 14:31 -36.99507 146.50287 32001 ft 459 kts 236°
2026-05-04 14:32 -37.06606 146.36941 32000 ft 459 kts 236°
2026-05-04 14:32 -37.10138 146.30281 32000 ft 459 kts 236°
2026-05-04 14:33 -37.13649 146.23646 32000 ft 457 kts 237°
2026-05-04 14:33 -37.15377 146.20376 31812 ft 454 kts 237°
2026-05-04 14:33 -37.17123 146.17068 31170 ft 451 kts 237°
2026-05-04 14:33 -37.18856 146.13782 30225 ft 452 kts 237°
2026-05-04 14:34 -37.20559 146.10550 29399 ft 448 kts 237°
2026-05-04 14:34 -37.22276 146.07289 28655 ft 441 kts 237°
2026-05-04 14:34 -37.23963 146.04080 27775 ft 438 kts 237°
2026-05-04 14:34 -37.25632 146.00904 27066 ft 430 kts 237°
2026-05-04 14:35 -37.27265 145.97792 26222 ft 427 kts 237°
2026-05-04 14:35 -37.28879 145.94715 25505 ft 420 kts 237°
2026-05-04 14:35 -37.30493 145.91636 24679 ft 417 kts 237°
2026-05-04 14:35 -37.32076 145.88615 23876 ft 413 kts 237°
2026-05-04 14:36 -37.33637 145.85643 23165 ft 407 kts 237°
2026-05-04 14:36 -37.35176 145.82712 22365 ft 403 kts 237°
2026-05-04 14:36 -37.36721 145.79766 21544 ft 400 kts 237°
2026-05-04 14:36 -37.38247 145.76854 20875 ft 393 kts 237°
2026-05-04 14:37 -37.39744 145.73994 20120 ft 388 kts 237°
2026-05-04 14:37 -37.41197 145.71216 19428 ft 382 kts 237°
2026-05-04 14:37 -37.42653 145.68428 18682 ft 378 kts 237°
2026-05-04 14:37 -37.44070 145.65697 17916 ft 375 kts 238°
2026-05-04 14:38 -37.45277 145.62808 17127 ft 372 kts 246°
2026-05-04 14:38 -37.46159 145.59742 16422 ft 368 kts 252°
2026-05-04 14:38 -37.46942 145.56728 15721 ft 363 kts 252°
2026-05-04 14:38 -37.47737 145.53737 14999 ft 360 kts 251°
2026-05-04 14:39 -37.48267 145.51754 14531 ft 357 kts 251°
2026-05-04 14:39 -37.49316 145.47827 13581 ft 352 kts 251°
2026-05-04 14:39 -37.50091 145.44917 13166 ft 348 kts 251°
2026-05-04 14:40 -37.51618 145.39154 12999 ft 348 kts 251°
2026-05-04 14:40 -37.52379 145.36277 12767 ft 346 kts 251°
2026-05-04 14:40 -37.53140 145.33399 12500 ft 337 kts 252°
2026-05-04 14:40 -37.53861 145.30666 12344 ft 321 kts 252°
2026-05-04 14:41 -37.54540 145.28085 12210 ft 304 kts 252°
2026-05-04 14:41 -37.55191 145.25615 12081 ft 289 kts 252°
2026-05-04 14:41 -37.56399 145.21020 11649 ft 270 kts 252°
2026-05-04 14:42 -37.57574 145.16536 10856 ft 268 kts 252°
2026-05-04 14:42 -37.58159 145.14305 10456 ft 266 kts 252°
2026-05-04 14:42 -37.58737 145.12100 10125 ft 263 kts 252°
2026-05-04 14:43 -37.59310 145.09911 10020 ft 266 kts 252°
2026-05-04 14:43 -37.59884 145.07714 10005 ft 265 kts 252°
2026-05-04 14:43 -37.60460 145.05508 10000 ft 265 kts 252°
2026-05-04 14:43 -37.61035 145.03304 10000 ft 265 kts 252°
2026-05-04 14:44 -37.61613 145.01086 10004 ft 265 kts 252°
2026-05-04 14:44 -37.62184 144.98901 9997 ft 265 kts 252°
2026-05-04 14:44 -37.62767 144.96660 10004 ft 265 kts 252°
2026-05-04 14:44 -37.63329 144.94498 9918 ft 263 kts 252°
2026-05-04 14:45 -37.64000 144.92348 9590 ft 262 kts 238°
2026-05-04 14:45 -37.65138 144.90589 9217 ft 261 kts 229°
2026-05-04 14:45 -37.66337 144.88876 8830 ft 260 kts 229°
2026-05-04 14:45 -37.67538 144.87161 8499 ft 256 kts 229°
2026-05-04 14:46 -37.68698 144.85508 8342 ft 247 kts 229°
2026-05-04 14:46 -37.69820 144.83908 8024 ft 244 kts 229°
2026-05-04 14:46 -37.70952 144.82295 7685 ft 243 kts 229°
2026-05-04 14:46 -37.72064 144.80710 7363 ft 242 kts 229°
2026-05-04 14:47 -37.73182 144.79132 7031 ft 241 kts 225°
2026-05-04 14:47 -37.74573 144.77965 6705 ft 240 kts 201°
2026-05-04 14:47 -37.76193 144.77630 6393 ft 239 kts 182°
2026-05-04 14:47 -37.77870 144.77546 6064 ft 238 kts 182°
2026-05-04 14:48 -37.78960 144.77491 5865 ft 237 kts 181°
2026-05-04 14:48 -37.81133 144.77661 5454 ft 236 kts 172°
2026-05-04 14:48 -37.82761 144.78019 5149 ft 235 kts 169°
2026-05-04 14:48 -37.84371 144.78401 4857 ft 234 kts 169°
2026-05-04 14:49 -37.85966 144.78785 4567 ft 233 kts 167°
2026-05-04 14:49 -37.87386 144.79672 4249 ft 233 kts 137°
2026-05-04 14:49 -37.88242 144.81392 3942 ft 232 kts 105°
2026-05-04 14:49 -37.88248 144.83409 3630 ft 231 kts 73°
2026-05-04 14:50 -37.87528 144.85222 3327 ft 230 kts 52°
2026-05-04 14:50 -37.86294 144.86426 3099 ft 225 kts 21°
2026-05-04 14:50 -37.84839 144.87031 3024 ft 216 kts
2026-05-04 14:50 -37.83370 144.86899 2946 ft 207 kts 349°
2026-05-04 14:51 -37.81980 144.86603 2875 ft 197 kts 349°
2026-05-04 14:51 -37.80716 144.86337 2827 ft 174 kts 349°
2026-05-04 14:51 -37.79578 144.86099 2635 ft 162 kts 350°
2026-05-04 14:51 -37.78468 144.85919 2350 ft 155 kts 353°
2026-05-04 14:52 -37.77424 144.85772 2038 ft 157 kts 353°
2026-05-04 14:52 -37.76307 144.85613 1980 ft 159 kts 353°
2026-05-04 14:52 -37.75197 144.85446 1979 ft 160 kts 351°
2026-05-04 14:52 -37.74108 144.85219 1956 ft 158 kts 349°
2026-05-04 14:53 -37.73040 144.84997 1617 ft 154 kts 350°
2026-05-04 14:53 -37.71934 144.84823 572 ft 167 kts 355°